Home   Weather   Aarhus   Past weeks

Flag for Denmark Past Weather in Aarhus, Denmark — Yesterday and Last 2 Weeks

Now
55 °F

Passing clouds.


Feels Like: 52 °F
Forecast: 50 / 63 °F
Wind: 13 mph from West

Location: Tirstrup

Current Time: Jun 25, 2017 at 10:54:59 pm

Latest Report: Jun 25, 2017 at 10:20 pm


Visibility: N/A

Pressure: 29.62 "Hg

Humidity: 59%

Dew Point: 41 °F

Location of AarhusLocation

Past Weather in Aarhus — Graph

°F

Aarhus Temperature Yesterday

Maximum temperature yesterday: 66 °F (at 3:50 pm)
Minimum temperature yesterday: 57 °F (at 9:50 pm)
Average temperature yesterday: 60 °F

High & Low Weather Summary for the Past Weeks

 TemperatureHumidityPressure
High79 °F (Jun 18, 3:20 pm)100% (Jun 12, 1:50 am)30.18 "Hg (Jun 12, 1:50 am)
Low50 °F (Jun 21, 2:20 am)40% (Jun 25, 3:50 pm)29.56 "Hg (Jun 25, 10:20 am)
Average61 °F71%29.90 "Hg
* Reported Jun 10 9:20 pm — Jun 25 9:20 pm, Aarhus. Weather by CustomWeather, © 2017

Note: Actual official high and low records may vary slightly from our data, if they occured in-between our weather recording intervals... More about our weather records

Advertising

Aarhus Weather History for the Previous 24 Hours

Scroll right to see more
 ConditionsComfort  
Time TempWeatherWind HumidityBarometerVisibility
9:20 pm
Sun, Jun 25
57 °FPartly sunny.16 mph55%29.62 "HgN/A
8:50 pm57 °FPartly sunny.13 mph59%29.62 "HgN/A
8:20 pm59 °FPartly sunny.15 mph51%29.62 "HgN/A
7:50 pm59 °FPartly sunny.13 mph51%29.62 "HgN/A
7:20 pm61 °FPartly sunny.15 mph52%29.62 "HgN/A
6:50 pm57 °FPartly sunny.21 mph59%29.65 "HgN/A
6:20 pm61 °FPartly sunny.17 mph45%29.62 "HgN/A
5:50 pm63 °FScattered clouds.15 mph45%29.62 "HgN/A
5:20 pm63 °FScattered clouds.16 mph49%29.62 "HgN/A
4:50 pm61 °FPartly sunny.18 mph48%29.62 "HgN/A
4:20 pm64 °FBroken clouds.16 mph43%29.62 "HgN/A
3:50 pm64 °FPartly sunny.21 mph40%29.62 "HgN/A
3:20 pm64 °FPassing clouds.17 mph43%29.62 "HgN/A
2:50 pm63 °FScattered clouds.16 mph49%29.62 "HgN/A
2:20 pm64 °FPartly sunny.17 mph46%29.59 "HgN/A
1:50 pm64 °FPartly sunny.20 mph46%29.59 "HgN/A
1:20 pm63 °FPartly sunny.17 mph45%29.59 "HgN/A
12:50 pm63 °FScattered clouds.22 mph45%29.59 "HgN/A
12:20 pm64 °FScattered clouds.20 mph46%29.59 "HgN/A
11:50 am64 °FScattered clouds.20 mph43%29.59 "HgN/A
11:20 am63 °FPartly sunny.13 mph56%29.56 "HgN/A
10:50 am61 °FLight rain. Partly sunny.14 mph63%29.56 "HgN/A
10:20 am61 °FPartly sunny.12 mph59%29.56 "HgN/A
9:50 am61 °FPassing clouds.13 mph63%29.59 "HgN/A
9:20 am59 °FScattered clouds.9 mph72%29.59 "HgN/A
8:50 am57 °FPartly sunny.8 mph72%29.59 "HgN/A
8:20 am57 °FPartly sunny.8 mph77%29.59 "HgN/A
7:50 am57 °FSprinkles. Partly sunny.6 mph82%29.59 "HgN/A
7:20 am55 °FSprinkles. Partly sunny.6 mph88%29.59 "HgN/A
6:50 am57 °FSprinkles. Partly sunny.8 mph77%29.59 "HgN/A
6:20 am57 °FSprinkles. Partly sunny.8 mph77%29.59 "HgN/A
5:50 am55 °FSprinkles. Partly sunny.9 mph88%29.59 "HgN/A
5:20 am57 °FPartly sunny.7 mph77%29.59 "HgN/A
4:50 am55 °FPartly sunny.8 mph82%29.62 "HgN/A
4:20 am55 °FPassing clouds.9 mph77%29.62 "HgN/A
3:50 am55 °FPassing clouds.7 mph77%29.62 "HgN/A
3:20 am54 °FPassing clouds.7 mph77%29.65 "HgN/A
2:50 am54 °FPassing clouds.7 mph77%29.65 "HgN/A
2:20 am54 °FPassing clouds.7 mph72%29.65 "HgN/A
1:50 am54 °FPassing clouds.7 mph77%29.68 "HgN/A
1:20 am55 °FPassing clouds.8 mph67%29.68 "HgN/A
12:50 am55 °FPassing clouds.7 mph67%29.71 "HgN/A
12:20 am55 °FPassing clouds.6 mph67%29.71 "HgN/A
11:50 pm
Sat, Jun 24
57 °FPassing clouds.9 mph63%29.71 "HgN/A
11:20 pm57 °FPassing clouds.10 mph63%29.71 "HgN/A
10:50 pm57 °FPassing clouds.13 mph63%29.71 "HgN/A
10:20 pm57 °FPassing clouds.9 mph63%29.71 "HgN/A
Weather by CustomWeather, © 2017

See weather overviewHow to use our weather pages